Time,TemperatureF,DewpointF,PressureIn,WindDirection,WindDirectionDegrees,WindSpeedMPH,WindSpeedGustMPH,Humidity,HourlyPrecipIn,Conditions,Clouds,dailyrainin,SoftwareType,DateUTC
2013-03-12 10:12:00,51.0,13.0,30.18,NW,315,2.0,3.0,22,-99.99,,,-99.99,,2013-03-12 16:12:00,
2013-03-12 10:22:00,52.0,13.0,30.18,North,352,3.0,5.0,21,-99.99,,,-99.99,,2013-03-12 16:22:00,
2013-03-12 10:33:00,53.0,13.0,30.19,North,0,0.0,2.0,20,-99.99,,,-99.99,,2013-03-12 16:33:00,
2013-03-12 10:43:00,55.0,14.0,30.19,SSE,149,2.0,3.0,19,-99.99,,,-99.99,,2013-03-12 16:43:00,
2013-03-12 10:52:00,57.0,15.0,30.20,NE,42,6.0,9.0,19,-99.99,,,-99.99,,2013-03-12 16:52:00,
2013-03-12 11:02:00,58.0,15.0,30.20,NNE,25,8.0,12.0,18,-99.99,,,-99.99,,2013-03-12 17:02:00,
2013-03-12 11:13:00,59.0,15.0,30.21,NE,34,7.0,10.0,18,-99.99,,,-99.99,,2013-03-12 17:13:00,
2013-03-12 11:22:00,59.0,16.0,30.21,NNE,32,7.0,12.0,18,-99.99,,,-99.99,,2013-03-12 17:22:00,
2013-03-12 11:33:00,60.0,16.0,30.21,NE,36,9.0,14.0,18,-99.99,,,-99.99,,2013-03-12 17:33:00,
2013-03-12 11:43:00,60.0,16.0,30.21,ENE,68,8.0,12.0,18,-99.99,,,-99.99,,2013-03-12 17:43:00,
2013-03-12 11:53:00,60.0,15.0,30.21,NE,43,10.0,15.0,17,-99.99,,,-99.99,,2013-03-12 17:53:00,
2013-03-12 12:02:00,60.0,17.0,30.21,ENE,60,9.0,14.0,18,-99.99,,,-99.99,,2013-03-12 18:02:00,
2013-03-12 12:13:00,62.0,17.0,30.21,NE,42,9.0,13.0,17,-99.99,,,-99.99,,2013-03-12 18:13:00,
2013-03-12 12:23:00,63.0,16.0,30.21,NE,47,12.0,15.0,16,-99.99,,,-99.99,,2013-03-12 18:23:00,
2013-03-12 12:33:00,64.0,17.0,30.21,NE,55,12.0,20.0,16,-99.99,,,-99.99,,2013-03-12 18:33:00,
2013-03-12 12:42:00,65.0,16.0,30.20,NE,55,10.0,14.0,15,-99.99,,,-99.99,,2013-03-12 18:42:00,
2013-03-12 12:53:00,66.0,17.0,30.20,NE,47,12.0,18.0,15,-99.99,,,-99.99,,2013-03-12 18:53:00,
2013-03-12 13:03:00,66.0,15.0,30.20,NE,37,14.0,18.0,14,-99.99,,,-99.99,,2013-03-12 19:03:00,
2013-03-12 13:13:00,66.0,16.0,30.20,NE,42,9.0,13.0,14,-99.99,,,-99.99,,2013-03-12 19:13:00,
2013-03-12 13:23:00,67.0,16.0,30.20,NNE,23,10.0,17.0,14,-99.99,,,-99.99,,2013-03-12 19:23:00,
2013-03-12 13:33:00,67.0,15.0,30.20,NE,50,9.0,13.0,13,-99.99,,,-99.99,,2013-03-12 19:33:00,
2013-03-12 13:43:00,68.0,15.0,30.19,NE,55,10.0,14.0,13,-99.99,,,-99.99,,2013-03-12 19:43:00,
2013-03-12 13:53:00,67.0,15.0,30.19,NNE,24,10.0,16.0,13,-99.99,,,-99.99,,2013-03-12 19:53:00,
2013-03-12 14:02:00,67.0,15.0,30.18,NNE,22,8.0,12.0,13,-99.99,,,-99.99,,2013-03-12 20:02:00,
2013-03-12 14:12:00,68.0,15.0,30.18,NNE,24,9.0,12.0,13,-99.99,,,-99.99,,2013-03-12 20:12:00,
2013-03-12 14:22:00,69.0,16.0,30.18,NE,56,10.0,14.0,13,-99.99,,,-99.99,,2013-03-12 20:22:00,
2013-03-12 14:32:00,69.0,16.0,30.17,NNE,28,7.0,10.0,13,-99.99,,,-99.99,,2013-03-12 20:32:00,
2013-03-12 14:42:00,70.0,15.0,30.17,ESE,108,9.0,14.0,12,-99.99,,,-99.99,,2013-03-12 20:42:00,
2013-03-12 14:52:00,68.0,15.0,30.16,ENE,71,3.0,6.0,13,-99.99,,,-99.99,,2013-03-12 20:52:00,
2013-03-12 15:02:00,71.0,16.0,30.16,NE,50,9.0,13.0,12,-99.99,,,-99.99,,2013-03-12 21:02:00,
2013-03-12 15:12:00,70.0,15.0,30.16,NE,38,9.0,13.0,12,-99.99,,,-99.99,,2013-03-12 21:12:00,
2013-03-12 15:22:00,71.0,14.0,30.15,NNE,18,10.0,15.0,11,-99.99,,,-99.99,,2013-03-12 21:22:00,
2013-03-12 15:32:00,70.0,15.0,30.15,NNE,17,9.0,13.0,12,-99.99,,,-99.99,,2013-03-12 21:32:00,
2013-03-12 15:43:00,70.0,15.0,30.15,ESE,106,5.0,8.0,12,-99.99,,,-99.99,,2013-03-12 21:43:00,
2013-03-12 15:52:00,70.0,15.0,30.15,East,97,9.0,16.0,12,-99.99,,,-99.99,,2013-03-12 21:52:00,
2013-03-12 16:02:00,71.0,14.0,30.14,SE,131,9.0,13.0,11,-99.99,,,-99.99,,2013-03-12 22:02:00,
2013-03-12 16:12:00,70.0,13.0,30.14,South,169,5.0,10.0,11,-99.99,,,-99.99,,2013-03-12 22:12:00,
2013-03-12 16:22:00,70.0,13.0,30.14,SE,135,3.0,5.0,11,-99.99,,,-99.99,,2013-03-12 22:22:00,
2013-03-12 16:33:00,71.0,14.0,30.14,ENE,76,6.0,8.0,11,-99.99,,,-99.99,,2013-03-12 22:33:00,
2013-03-12 16:42:00,71.0,14.0,30.14,ENE,78,7.0,9.0,11,-99.99,,,-99.99,,2013-03-12 22:42:00,
2013-03-12 16:52:00,71.0,14.0,30.14,WNW,292,2.0,5.0,11,-99.99,,,-99.99,,2013-03-12 22:52:00,
2013-03-12 17:02:00,70.0,13.0,30.14,NNE,14,3.0,5.0,11,-99.99,,,-99.99,,2013-03-12 23:02:00,
2013-03-12 17:12:00,71.0,14.0,30.13,SSE,159,6.0,9.0,11,-99.99,,,-99.99,,2013-03-12 23:12:00,
2013-03-12 17:22:00,71.0,14.0,30.13,East,101,5.0,7.0,11,-99.99,,,-99.99,,2013-03-12 23:22:00,
2013-03-12 17:34:00,71.0,14.0,30.14,SE,126,8.0,10.0,11,-99.99,,,-99.99,,2013-03-12 23:34:00,
2013-03-12 17:43:00,71.0,14.0,30.14,SSE,150,6.0,8.0,11,-99.99,,,-99.99,,2013-03-12 23:43:00,
2013-03-12 17:52:00,71.0,14.0,30.14,ESE,122,7.0,10.0,11,-99.99,,,-99.99,,2013-03-12 23:52:00,
2013-03-12 18:02:00,71.0,14.0,30.14,ESE,123,5.0,8.0,11,-99.99,,,-99.99,,2013-03-13 00:02:00,
2013-03-12 18:12:00,71.0,14.0,30.14,ESE,112,6.0,9.0,11,-99.99,,,-99.99,,2013-03-13 00:12:00,
2013-03-12 18:23:00,71.0,13.0,30.14,SE,127,8.0,12.0,11,-99.99,,,-99.99,,2013-03-13 00:23:00,
2013-03-12 18:33:00,71.0,14.0,30.14,ESE,119,7.0,9.0,11,-99.99,,,-99.99,,2013-03-13 00:33:00,
2013-03-12 18:42:00,70.0,13.0,30.14,SE,126,9.0,12.0,11,-99.99,,,-99.99,,2013-03-13 00:42:00,
2013-03-12 18:52:00,70.0,15.0,30.15,SE,132,8.0,12.0,12,-99.99,,,-99.99,,2013-03-13 00:52:00,
2013-03-12 19:03:00,69.0,14.0,30.15,ESE,123,10.0,14.0,12,-99.99,,,-99.99,,2013-03-13 01:03:00,
2013-03-12 19:12:00,69.0,14.0,30.15,SE,135,7.0,9.0,12,-99.99,,,-99.99,,2013-03-13 01:12:00,
2013-03-12 19:22:00,68.0,13.0,30.15,ESE,123,7.0,8.0,12,-99.99,,,-99.99,,2013-03-13 01:22:00,
2013-03-12 19:32:00,67.0,14.0,30.16,SE,142,7.0,8.0,13,-99.99,,,-99.99,,2013-03-13 01:32:00,
2013-03-12 19:42:00,65.0,13.0,30.16,SSE,147,7.0,8.0,13,-99.99,,,-99.99,,2013-03-13 01:42:00,
2013-03-12 19:52:00,64.0,12.0,30.16,SSE,149,8.0,8.0,13,-99.99,,,-99.99,,2013-03-13 01:52:00,
2013-03-12 20:02:00,64.0,14.0,30.16,SSE,163,7.0,9.0,14,-99.99,,,-99.99,,2013-03-13 02:02:00,
2013-03-12 20:12:00,64.0,14.0,30.17,SSE,149,7.0,9.0,14,-99.99,,,-99.99,,2013-03-13 02:12:00,
2013-03-12 20:22:00,63.0,13.0,30.17,SE,144,7.0,8.0,14,-99.99,,,-99.99,,2013-03-13 02:22:00,
2013-03-12 20:32:00,62.0,13.0,30.18,SE,141,8.0,9.0,15,-99.99,,,-99.99,,2013-03-13 02:32:00,
2013-03-12 20:43:00,61.0,13.0,30.18,SE,141,7.0,7.0,15,-99.99,,,-99.99,,2013-03-13 02:43:00,
2013-03-12 20:52:00,62.0,12.0,30.18,SE,134,6.0,7.0,14,-99.99,,,-99.99,,2013-03-13 02:52:00,
2013-03-12 21:02:00,61.0,13.0,30.18,SE,130,6.0,7.0,15,-99.99,,,-99.99,,2013-03-13 03:02:00,
2013-03-12 21:12:00,61.0,13.0,30.19,ESE,122,6.0,7.0,15,-99.99,,,-99.99,,2013-03-13 03:12:00,
2013-03-12 21:22:00,61.0,13.0,30.20,ESE,123,12.0,14.0,15,-99.99,,,-99.99,,2013-03-13 03:22:00,
2013-03-12 21:32:00,61.0,16.0,30.20,SE,133,12.0,14.0,17,-99.99,,,-99.99,,2013-03-13 03:32:00,
2013-03-12 21:42:00,61.0,17.0,30.20,SE,126,9.0,13.0,18,-99.99,,,-99.99,,2013-03-13 03:42:00,
2013-03-12 21:52:00,60.0,17.0,30.21,SE,136,10.0,13.0,19,-99.99,,,-99.99,,2013-03-13 03:52:00,
2013-03-12 22:02:00,60.0,18.0,30.22,SE,127,15.0,20.0,19,-99.99,,,-99.99,,2013-03-13 04:02:00,
2013-03-12 22:13:00,60.0,19.0,30.22,ESE,118,13.0,18.0,20,-99.99,,,-99.99,,2013-03-13 04:13:00,
2013-03-12 22:22:00,59.0,19.0,30.23,ESE,122,13.0,16.0,21,-99.99,,,-99.99,,2013-03-13 04:22:00,
2013-03-12 22:32:00,58.0,20.0,30.23,SE,127,10.0,14.0,22,-99.99,,,-99.99,,2013-03-13 04:32:00,
2013-03-12 22:42:00,58.0,21.0,30.23,SE,128,12.0,14.0,23,-99.99,,,-99.99,,2013-03-13 04:42:00,
2013-03-12 22:52:00,58.0,20.0,30.24,SE,134,10.0,13.0,23,-99.99,,,-99.99,,2013-03-13 04:52:00,
2013-03-12 23:02:00,57.0,21.0,30.24,SE,136,9.0,13.0,24,-99.99,,,-99.99,,2013-03-13 05:02:00,
2013-03-12 23:12:00,57.0,21.0,30.24,SE,137,13.0,16.0,24,-99.99,,,-99.99,,2013-03-13 05:12:00,
2013-03-12 23:22:00,57.0,20.0,30.24,SE,129,12.0,15.0,24,-99.99,,,-99.99,,2013-03-13 05:22:00,
2013-03-12 23:32:00,57.0,21.0,30.24,SE,125,10.0,14.0,25,-99.99,,,-99.99,,2013-03-13 05:32:00,
2013-03-12 23:42:00,56.0,21.0,30.25,SE,137,13.0,17.0,25,-99.99,,,-99.99,,2013-03-13 05:42:00,
2013-03-12 23:52:00,55.0,21.0,30.25,SE,138,8.0,13.0,26,-99.99,,,-99.99,,2013-03-13 05:52:00,